Orbital Elements at Epoch 2458953.5 (2020-Apr-14.0) TDB
Reference: JPL 7 (heliocentric ecliptic J2000)
Element | Value | Uncertainty (1-sigma) | Units |
e | .9898679875903229 | 0.0046785 | |
a | 25.09303807032235 | 11.388 | au |
q | .2542429731250058 | 0.0020356 | au |
i | 44.95467243950517 | 0.49347 | deg |
node | 120.6559390884409 | 0.27222 | deg |
peri | 177.7425034424157 | 0.23542 | deg |
M | 359.630362575582 | 0.25181 | deg |
tp | 2459000.641319005360 (2020-May-31.14131901) | 0.023756 | TDB |
period | 45912.22024839774 125.70 | 31255 85.57 | d yr |
n | .007841049682465823 | 0.0053378 | deg/d |
Q | 49.9318331675197 | 22.661 | au |
|
| | Orbit Determination Parameters
Additional Information
|